Back to catalog

STARLINK-32000

AliveCommunicationsVLEO
NORAD 60289·PAYLOAD·🇺🇸 United States

Launched Jul 28, 2024 from Cape Canaveral Space Force Station

Loading…

Next Passes (next 24 hours)

TLE

FreshSource: CelesTrak SupGP

Epoch: Sep 14, 2026, 21:30 UTC

1 60289C 24132M   26257.89631944  .00045239  00000+0  14549-2 0  2577
2 60289  53.1571 252.2689 0001188  89.6147  44.4571 15.31675421    17

Track STARLINK-32000 in real time with AllMySat

Download on the App Store